| time (UTC) | temp F | wind direction | speed MPH | gust MPH | rain 1hr in | rain 24hr in | rain mn in | humidity % | barometer mb |
| 20260905091339 | 71 | 216 | 0.0 | 0.0 | 0.00 | 0.00 | 0.00 | 88 | 1012.9 |
| 20260905090838 | 71 | 216 | 0.0 | 0.0 | 0.00 | 0.00 | 0.00 | 87 | 1013.2 |
| 20260905090334 | 71 | 229 | 0.0 | 0.0 | 0.00 | 0.00 | 0.00 | 86 | 1013.1 |
| 20260905085833 | 71 | 239 | 0.0 | 0.0 | 0.00 | 0.00 | 0.00 | 86 | 1013.0 |
| 20260905085328 | 71 | 226 | 0.0 | 0.0 | 0.00 | 0.00 | 0.00 | 87 | 1013.2 |
| 20260905084824 | 71 | 208 | 0.0 | 0.0 | 0.00 | 0.00 | 0.00 | 87 | 1012.9 |
| 20260905084323 | 71 | 233 | 0.0 | 1.0 | 0.00 | 0.00 | 0.00 | 87 | 1013.2 |
| 20260905083818 | 71 | 195 | 0.0 | 1.0 | 0.00 | 0.00 | 0.00 | 87 | 1013.1 |
| 20260905083314 | 71 | 230 | 0.0 | 0.0 | 0.00 | 0.00 | 0.00 | 88 | 1013.1 |
| 20260905082809 | 71 | 238 | 0.0 | 0.0 | 0.00 | 0.00 | 0.00 | 88 | 1013.1 |
| 20260905082307 | 71 | 241 | 0.0 | 1.0 | 0.00 | 0.00 | 0.00 | 88 | 1013.1 |
| 20260905081805 | 71 | 224 | 0.0 | 0.0 | 0.00 | 0.00 | 0.00 | 89 | 1013.2 |
| 20260905081301 | 71 | 224 | 0.0 | 0.0 | 0.00 | 0.00 | 0.00 | 89 | 1013.2 |
| 20260905080759 | 71 | 192 | 0.0 | 0.0 | 0.00 | 0.00 | 0.00 | 90 | 1013.3 |
| 20260905080254 | 71 | 189 | 0.0 | 0.0 | 0.00 | 0.00 | 0.00 | 90 | 1013.1 |
| 20260905075752 | 71 | 210 | 0.0 | 1.0 | 0.00 | 0.00 | 0.00 | 91 | 1013.1 |
| 20260905075247 | 71 | 199 | 0.0 | 0.0 | 0.00 | 0.00 | 0.00 | 91 | 1013.0 |
| 20260905074746 | 70 | 216 | 0.0 | 0.0 | 0.00 | 0.00 | 0.00 | 92 | 1013.1 |
| 20260905074242 | 70 | 198 | 0.0 | 0.0 | 0.00 | 0.00 | 0.00 | 93 | 1013.2 |
| 20260905073737 | 70 | 198 | 0.0 | 0.0 | 0.00 | 0.00 | 0.00 | 93 | 1013.2 |
| 20260905073233 | 70 | 201 | 0.0 | 0.0 | 0.00 | 0.00 | 0.00 | 94 | 1013.0 |
| 20260905072732 | 70 | 201 | 0.0 | 0.0 | 0.00 | 0.00 | 0.00 | 94 | 1013.1 |
| 20260905072227 | 70 | 204 | 0.0 | 0.0 | 0.00 | 0.00 | 0.00 | 94 | 1013.0 |
| 20260905071724 | 70 | 204 | 0.0 | 0.0 | 0.00 | 0.00 | 0.00 | 94 | 1013.1 |
| 20260905071220 | 70 | 204 | 0.0 | 0.0 | 0.00 | 0.00 | 0.00 | 94 | 1013.0 |
| 20260905070714 | 71 | 204 | 0.0 | 0.0 | 0.00 | 0.00 | 0.00 | 93 | 1013.2 |
| 20260905070210 | 70 | 210 | 0.0 | 0.0 | 0.00 | 0.00 | 0.00 | 94 | 1013.1 |
| 20260905065709 | 70 | 218 | 0.0 | 0.0 | 0.00 | 0.00 | 0.00 | 94 | 1013.2 |
| 20260905065203 | 70 | 219 | 0.0 | 0.0 | 0.00 | 0.00 | 0.00 | 94 | 1013.2 |
| 20260905064659 | 70 | 216 | 0.0 | 0.0 | 0.00 | 0.00 | 0.00 | 94 | 1013.2 |
| 20260905064154 | 70 | 217 | 0.0 | 0.0 | 0.00 | 0.00 | 0.00 | 94 | 1013.3 |
| 20260905063653 | 70 | 217 | 0.0 | 0.0 | 0.00 | 0.00 | 0.00 | 95 | 1013.3 |
| 20260905063149 | 70 | 216 | 0.0 | 0.0 | 0.00 | 0.00 | 0.00 | 95 | 1013.5 |
| 20260905062645 | 70 | 216 | 0.0 | 0.0 | 0.00 | 0.00 | 0.00 | 95 | 1013.2 |
| 20260905062144 | 70 | 213 | 0.0 | 0.0 | 0.00 | 0.00 | 0.00 | 96 | 1013.6 |
| 20260905061639 | 70 | 212 | 0.0 | 0.0 | 0.00 | 0.00 | 0.00 | 96 | 1013.4 |
| 20260905061138 | 71 | 218 | 0.0 | 0.0 | 0.00 | 0.00 | 0.00 | 96 | 1013.3 |
| 20260905060633 | 71 | 219 | 0.0 | 0.0 | 0.00 | 0.00 | 0.00 | 96 | 1013.6 |
| 20260905060130 | 71 | 228 | 1.0 | 1.0 | 0.00 | 0.00 | 0.00 | 95 | 1013.4 |
| 20260905055628 | 71 | 217 | 0.0 | 0.0 | 0.00 | 0.00 | 0.00 | 95 | 1013.4 |
| 20260905055124 | 71 | 217 | 0.0 | 0.0 | 0.00 | 0.00 | 0.00 | 94 | 1013.7 |
| 20260905054619 | 71 | 217 | 0.0 | 0.0 | 0.00 | 0.00 | 0.00 | 94 | 1013.6 |
| 20260905054114 | 71 | 216 | 0.0 | 0.0 | 0.00 | 0.00 | 0.00 | 94 | 1013.6 |
| 20260905053614 | 71 | 216 | 0.0 | 0.0 | 0.00 | 0.00 | 0.00 | 94 | 1013.7 |
| 20260905053109 | 71 | 216 | 0.0 | 0.0 | 0.00 | 0.00 | 0.00 | 94 | 1013.8 |
| 20260905052608 | 71 | 216 | 0.0 | 0.0 | 0.00 | 0.00 | 0.00 | 94 | 1013.8 |
| 20260905052058 | 71 | 216 | 0.0 | 0.0 | 0.00 | 0.00 | 0.00 | 93 | 1013.7 |
| 20260905051553 | 71 | 217 | 0.0 | 0.0 | 0.00 | 0.00 | 0.00 | 94 | 1013.7 |
| 20260905051050 | 71 | 217 | 0.0 | 0.0 | 0.00 | 0.00 | 0.00 | 93 | 1013.7 |
| 20260905050546 | 71 | 217 | 0.0 | 0.0 | 0.00 | 0.00 | 0.00 | 94 | 1013.7 |
| 20260905050043 | 71 | 217 | 0.0 | 0.0 | 0.00 | 0.00 | 0.00 | 94 | 1013.8 |
| 20260905045543 | 72 | 217 | 0.0 | 0.0 | 0.00 | 0.00 | 0.00 | 94 | 1014.0 |
| 20260905045038 | 72 | 217 | 0.0 | 0.0 | 0.00 | 0.00 | 0.00 | 94 | 1014.0 |
| 20260905044532 | 72 | 217 | 0.0 | 0.0 | 0.00 | 0.00 | 0.00 | 94 | 1014.0 |
| 20260905044032 | 72 | 217 | 0.0 | 0.0 | 0.00 | 0.00 | 0.00 | 93 | 1013.9 |
| 20260905043531 | 72 | 217 | 0.0 | 0.0 | 0.00 | 0.00 | 0.00 | 92 | 1014.0 |
| 20260905043027 | 73 | 217 | 0.0 | 0.0 | 0.00 | 0.00 | 0.00 | 93 | 1013.9 |
| 20260905042520 | 73 | 217 | 0.0 | 0.0 | 0.00 | 0.00 | 0.00 | 92 | 1013.9 |
| 20260905042016 | 73 | 217 | 0.0 | 0.0 | 0.00 | 0.00 | 0.00 | 93 | 1013.9 |
| 20260905041512 | 73 | 217 | 0.0 | 0.0 | 0.00 | 0.00 | 0.00 | 92 | 1013.9 |
| 20260905041007 | 74 | 217 | 0.0 | 0.0 | 0.00 | 0.00 | 0.00 | 93 | 1014.0 |
| 20260905040506 | 74 | 222 | 0.0 | 1.0 | 0.00 | 0.00 | 0.00 | 93 | 1014.3 |
| 20260905040005 | 75 | 227 | 0.0 | 0.0 | 0.00 | 0.01 | 0.01 | 93 | 1014.3 |
| 20260905035500 | 75 | 228 | 1.0 | 2.0 | 0.00 | 0.01 | 0.01 | 92 | 1014.2 |
| 20260905034958 | 75 | 240 | 1.0 | 1.0 | 0.00 | 0.01 | 0.01 | 91 | 1014.2 |
| 20260905034458 | 75 | 229 | 1.0 | 2.0 | 0.00 | 0.01 | 0.01 | 92 | 1014.4 |
| 20260905033956 | 75 | 246 | 1.0 | 1.0 | 0.00 | 0.01 | 0.01 | 93 | 1014.4 |
| 20260905033452 | 75 | 229 | 0.0 | 0.0 | 0.00 | 0.01 | 0.01 | 93 | 1014.3 |
| 20260905032946 | 75 | 229 | 0.0 | 0.0 | 0.00 | 0.01 | 0.01 | 93 | 1014.2 |
| 20260905032441 | 75 | 228 | 0.0 | 0.0 | 0.00 | 0.01 | 0.01 | 93 | 1014.1 |
| 20260905031936 | 75 | 228 | 0.0 | 0.0 | 0.00 | 0.01 | 0.01 | 93 | 1014.1 |
| 20260905031432 | 75 | 229 | 0.0 | 0.0 | 0.00 | 0.01 | 0.01 | 93 | 1013.9 |
| 20260905030927 | 75 | 229 | 0.0 | 0.0 | 0.00 | 0.01 | 0.01 | 93 | 1013.9 |
| 20260905030423 | 75 | 229 | 0.0 | 0.0 | 0.00 | 0.01 | 0.01 | 93 | 1014.1 |
| 20260905025921 | 75 | 231 | 0.0 | 0.0 | 0.00 | 0.01 | 0.01 | 93 | 1014.1 |
| 20260905025417 | 75 | 231 | 0.0 | 0.0 | 0.00 | 0.01 | 0.01 | 93 | 1014.2 |
| 20260905024914 | 75 | 231 | 0.0 | 0.0 | 0.00 | 0.01 | 0.01 | 92 | 1013.9 |
| 20260905024408 | 75 | 231 | 0.0 | 0.0 | 0.00 | 0.01 | 0.01 | 91 | 1013.7 |
| 20260905023904 | 75 | 231 | 0.0 | 0.0 | 0.00 | 0.01 | 0.01 | 91 | 1013.8 |
| 20260905023359 | 76 | 231 | 0.0 | 0.0 | 0.00 | 0.01 | 0.01 | 91 | 1013.8 |
| 20260905022857 | 76 | 231 | 0.0 | 0.0 | 0.00 | 0.01 | 0.01 | 91 | 1013.9 |
| 20260905022354 | 76 | 231 | 0.0 | 0.0 | 0.00 | 0.01 | 0.01 | 91 | 1013.7 |
| 20260905021853 | 75 | 231 | 0.0 | 0.0 | 0.00 | 0.01 | 0.01 | 91 | 1013.8 |
| 20260905021348 | 75 | 231 | 0.0 | 0.0 | 0.00 | 0.01 | 0.01 | 92 | 1013.9 |
| 20260905020843 | 75 | 231 | 0.0 | 0.0 | 0.00 | 0.01 | 0.01 | 92 | 1013.9 |
| 20260905020332 | 76 | 231 | 0.0 | 0.0 | 0.00 | 0.01 | 0.01 | 92 | 1013.6 |
| 20260905015831 | 76 | 231 | 0.0 | 0.0 | 0.00 | 0.01 | 0.01 | 92 | 1014.0 |
| 20260905015331 | 76 | 231 | 0.0 | 0.0 | 0.00 | 0.01 | 0.01 | 92 | 1013.8 |
| 20260905014825 | 76 | 231 | 0.0 | 0.0 | 0.00 | 0.01 | 0.01 | 92 | 1014.1 |
| 20260905014321 | 76 | 231 | 0.0 | 0.0 | 0.00 | 0.01 | 0.01 | 92 | 1014.1 |
| 20260905013816 | 76 | 231 | 0.0 | 0.0 | 0.00 | 0.01 | 0.01 | 91 | 1013.7 |
| 20260905013312 | 77 | 231 | 0.0 | 0.0 | 0.00 | 0.01 | 0.01 | 90 | 1014.1 |
| 20260905012807 | 77 | 231 | 0.0 | 0.0 | 0.00 | 0.01 | 0.01 | 88 | 1014.0 |
| 20260905012306 | 77 | 232 | 0.0 | 0.0 | 0.00 | 0.01 | 0.01 | 87 | 1013.7 |
| 20260905011759 | 77 | 230 | 0.0 | 0.0 | 0.00 | 0.01 | 0.01 | 87 | 1013.7 |
| 20260905011254 | 78 | 230 | 0.0 | 0.0 | 0.00 | 0.01 | 0.01 | 86 | 1014.0 |
| 20260905010749 | 78 | 230 | 0.0 | 0.0 | 0.00 | 0.01 | 0.01 | 86 | 1014.0 |
| 20260905010244 | 78 | 230 | 0.0 | 0.0 | 0.00 | 0.01 | 0.01 | 87 | 1014.1 |
| 20260905005741 | 78 | 230 | 0.0 | 0.0 | 0.00 | 0.01 | 0.01 | 87 | 1013.9 |
| 20260905005236 | 78 | 230 | 0.0 | 0.0 | 0.00 | 0.01 | 0.01 | 87 | 1013.7 |
| 20260905004736 | 78 | 230 | 0.0 | 0.0 | 0.00 | 0.01 | 0.01 | 87 | 1014.0 |
| 20260905004231 | 78 | 230 | 0.0 | 0.0 | 0.00 | 0.01 | 0.01 | 87 | 1014.0 |
| 20260905003731 | 78 | 230 | 0.0 | 0.0 | 0.00 | 0.01 | 0.01 | 87 | 1013.8 |
| 20260905003227 | 77 | 230 | 0.0 | 0.0 | 0.00 | 0.01 | 0.01 | 86 | 1014.0 |
| 20260905002722 | 78 | 230 | 0.0 | 0.0 | 0.00 | 0.01 | 0.01 | 86 | 1013.8 |
| 20260905002222 | 78 | 230 | 0.0 | 0.0 | 0.00 | 0.01 | 0.01 | 86 | 1013.8 |
| 20260905001717 | 77 | 230 | 0.0 | 0.0 | 0.00 | 0.01 | 0.01 | 86 | 1013.8 |
| 20260905001216 | 77 | 230 | 0.0 | 0.0 | 0.00 | 0.01 | 0.01 | 86 | 1013.8 |
| 20260905000712 | 77 | 230 | 0.0 | 0.0 | 0.00 | 0.01 | 0.01 | 86 | 1013.6 |
| 20260905000208 | 77 | 230 | 0.0 | 0.0 | 0.00 | 0.01 | 0.01 | 86 | 1013.8 |
| 20260904235708 | 77 | 230 | 0.0 | 0.0 | 0.00 | 0.01 | 0.01 | 86 | 1013.5 |
| 20260904235202 | 77 | 230 | 0.0 | 0.0 | 0.00 | 0.01 | 0.01 | 86 | 1013.5 |
| 20260904234657 | 77 | 230 | 0.0 | 0.0 | 0.00 | 0.01 | 0.01 | 86 | 1013.3 |
| 20260904234153 | 78 | 230 | 0.0 | 0.0 | 0.00 | 0.01 | 0.01 | 87 | 1013.1 |
| 20260904233649 | 78 | 230 | 0.0 | 0.0 | 0.00 | 0.01 | 0.01 | 86 | 1013.5 |
| 20260904233144 | 78 | 230 | 0.0 | 0.0 | 0.00 | 0.01 | 0.01 | 86 | 1013.4 |
| 20260904232641 | 78 | 230 | 0.0 | 0.0 | 0.00 | 0.01 | 0.01 | 86 | 1013.3 |
| 20260904232137 | 78 | 230 | 0.0 | 0.0 | 0.00 | 0.01 | 0.01 | 86 | 1013.4 |
| 20260904231632 | 78 | 231 | 0.0 | 0.0 | 0.00 | 0.01 | 0.01 | 87 | 1013.1 |
| 20260904231127 | 79 | 231 | 0.0 | 0.0 | 0.00 | 0.01 | 0.01 | 86 | 1013.4 |
| 20260904230626 | 79 | 231 | 0.0 | 0.0 | 0.00 | 0.01 | 0.01 | 85 | 1013.5 |
| 20260904230122 | 80 | 231 | 0.0 | 0.0 | 0.00 | 0.01 | 0.01 | 84 | 1013.3 |
| 20260904225619 | 80 | 237 | 0.0 | 0.0 | 0.00 | 0.01 | 0.01 | 84 | 1013.5 |
| 20260904225114 | 80 | 237 | 0.0 | 0.0 | 0.00 | 0.01 | 0.01 | 83 | 1013.5 |
| 20260904224609 | 81 | 237 | 0.0 | 0.0 | 0.00 | 0.01 | 0.01 | 82 | 1013.4 |
| 20260904224104 | 81 | 239 | 0.0 | 0.0 | 0.00 | 0.01 | 0.01 | 79 | 1013.4 |
| 20260904223603 | 81 | 225 | 0.0 | 0.0 | 0.00 | 0.01 | 0.01 | 79 | 1013.6 |
| 20260904223059 | 81 | 233 | 0.0 | 0.0 | 0.00 | 0.01 | 0.01 | 78 | 1013.7 |
| 20260904222554 | 82 | 236 | 0.0 | 0.0 | 0.00 | 0.01 | 0.01 | 77 | 1013.8 |
| 20260904222044 | 83 | 261 | 1.0 | 1.0 | 0.00 | 0.01 | 0.01 | 75 | 1013.8 |
| 20260904221544 | 82 | 227 | 0.0 | 0.0 | 0.00 | 0.01 | 0.01 | 76 | 1013.7 |
| 20260904221039 | 82 | 258 | 1.0 | 1.0 | 0.00 | 0.01 | 0.01 | 76 | 1013.3 |
| 20260904220538 | 82 | 250 | 0.0 | 0.0 | 0.00 | 0.01 | 0.01 | 76 | 1013.6 |
| 20260904220028 | 82 | 291 | 1.0 | 1.0 | 0.00 | 0.01 | 0.01 | 76 | 1013.6 |
| 20260904215528 | 82 | 318 | 0.0 | 1.0 | 0.00 | 0.01 | 0.01 | 76 | 1013.7 |
| 20260904215024 | 82 | 332 | 4.0 | 5.0 | 0.00 | 0.01 | 0.01 | 74 | 1013.8 |
| 20260904214519 | 83 | 284 | 3.0 | 3.0 | 0.00 | 0.01 | 0.01 | 74 | 1013.8 |
| 20260904214015 | 83 | 301 | 4.0 | 5.0 | 0.00 | 0.01 | 0.01 | 75 | 1013.8 |
| 20260904213512 | 83 | 299 | 2.0 | 2.0 | 0.00 | 0.01 | 0.01 | 74 | 1013.8 |
| 20260904213009 | 83 | 284 | 2.0 | 2.0 | 0.00 | 0.01 | 0.01 | 74 | 1013.7 |
| 20260904212508 | 83 | 263 | 2.0 | 3.0 | 0.00 | 0.01 | 0.01 | 73 | 1013.7 |
| 20260904212004 | 83 | 247 | 3.0 | 5.0 | 0.00 | 0.01 | 0.01 | 73 | 1013.9 |
| 20260904211458 | 83 | 244 | 4.0 | 6.0 | 0.00 | 0.01 | 0.01 | 73 | 1013.9 |
| 20260904210954 | 83 | 257 | 1.0 | 2.0 | 0.00 | 0.01 | 0.01 | 73 | 1013.6 |
| 20260904210453 | 83 | 307 | 5.0 | 6.0 | 0.00 | 0.01 | 0.01 | 72 | 1013.8 |
| 20260904205948 | 83 | 305 | 3.0 | 3.0 | 0.00 | 0.01 | 0.01 | 72 | 1013.8 |
| 20260904205444 | 84 | 258 | 4.0 | 6.0 | 0.00 | 0.01 | 0.01 | 72 | 1013.5 |
| 20260904204941 | 84 | 254 | 3.0 | 3.0 | 0.00 | 0.01 | 0.01 | 71 | 1013.6 |
| 20260904204436 | 85 | 295 | 4.0 | 5.0 | 0.00 | 0.01 | 0.01 | 70 | 1013.3 |
| 20260904203932 | 85 | 308 | 4.0 | 5.0 | 0.00 | 0.01 | 0.01 | 69 | 1013.6 |
| 20260904203429 | 87 | 301 | 4.0 | 10.0 | 0.00 | 0.01 | 0.01 | 67 | 1013.3 |
| 20260904202924 | 86 | 260 | 1.0 | 2.0 | 0.00 | 0.01 | 0.01 | 68 | 1013.5 |
| 20260904202420 | 86 | 295 | 2.0 | 3.0 | 0.00 | 0.01 | 0.01 | 68 | 1013.4 |
| 20260904201916 | 86 | 233 | 3.0 | 5.0 | 0.00 | 0.01 | 0.01 | 68 | 1013.4 |
| 20260904201411 | 86 | 322 | 6.0 | 7.0 | 0.00 | 0.01 | 0.01 | 68 | 1013.2 |
| 20260904200907 | 87 | 321 | 2.0 | 3.0 | 0.00 | 0.01 | 0.01 | 67 | 1013.5 |
| 20260904200405 | 87 | 202 | 2.0 | 3.0 | 0.00 | 0.01 | 0.01 | 67 | 1013.8 |
| 20260904195900 | 86 | 285 | 3.0 | 3.0 | 0.00 | 0.01 | 0.01 | 68 | 1013.7 |
| 20260904195358 | 87 | 225 | 2.0 | 3.0 | 0.00 | 0.01 | 0.01 | 66 | 1013.7 |
| 20260904194853 | 87 | 270 | 1.0 | 2.0 | 0.00 | 0.01 | 0.01 | 67 | 1013.9 |
| 20260904194352 | 86 | 273 | 2.0 | 3.0 | 0.00 | 0.01 | 0.01 | 69 | 1013.8 |
| 20260904193848 | 84 | 224 | 0.0 | 0.0 | 0.00 | 0.01 | 0.01 | 70 | 1014.2 |
| 20260904193343 | 83 | 240 | 3.0 | 3.0 | 0.00 | 0.01 | 0.01 | 72 | 1014.1 |
| 20260904192838 | 83 | 222 | 5.0 | 7.0 | 0.00 | 0.01 | 0.01 | 71 | 1014.5 |
| 20260904192333 | 85 | 310 | 7.0 | 8.0 | 0.00 | 0.01 | 0.01 | 70 | 1014.4 |
| 20260904191830 | 85 | 340 | 12.0 | 14.0 | 0.00 | 0.01 | 0.01 | 69 | 1014.2 |
| 20260904191326 | 85 | 225 | 3.0 | 5.0 | 0.00 | 0.01 | 0.01 | 70 | 1014.2 |
| 20260904190822 | 85 | 36 | 5.0 | 6.0 | 0.00 | 0.01 | 0.01 | 70 | 1014.5 |
| 20260904190318 | 84 | 301 | 6.0 | 6.0 | 0.00 | 0.01 | 0.01 | 70 | 1014.4 |
| 20260904185814 | 86 | 290 | 8.0 | 10.0 | 0.00 | 0.01 | 0.01 | 69 | 1014.4 |
| 20260904185309 | 85 | 288 | 3.0 | 3.0 | 0.00 | 0.01 | 0.01 | 70 | 1014.6 |
| 20260904184809 | 85 | 292 | 6.0 | 8.0 | 0.00 | 0.01 | 0.01 | 69 | 1014.6 |
| 20260904184304 | 85 | 314 | 5.0 | 6.0 | 0.00 | 0.01 | 0.01 | 71 | 1014.7 |
| 20260904183759 | 84 | 210 | 8.0 | 10.0 | 0.00 | 0.01 | 0.01 | 70 | 1014.6 |
| 20260904183254 | 84 | 315 | 5.0 | 8.0 | 0.00 | 0.01 | 0.01 | 71 | 1014.8 |
| 20260904182749 | 85 | 259 | 6.0 | 8.0 | 0.00 | 0.01 | 0.01 | 71 | 1014.8 |
| 20260904182244 | 84 | 249 | 1.0 | 2.0 | 0.00 | 0.01 | 0.01 | 72 | 1014.8 |
| 20260904181740 | 83 | 230 | 3.0 | 5.0 | 0.00 | 0.01 | 0.01 | 72 | 1014.9 |
| 20260904181239 | 83 | 254 | 5.0 | 8.0 | 0.00 | 0.01 | 0.01 | 72 | 1015.0 |
| 20260904180735 | 83 | 294 | 3.0 | 5.0 | 0.00 | 0.01 | 0.01 | 73 | 1015.2 |
| 20260904180230 | 83 | 305 | 8.0 | 9.0 | 0.00 | 0.01 | 0.01 | 73 | 1014.9 |
| 20260904175729 | 83 | 296 | 4.0 | 8.0 | 0.00 | 0.01 | 0.01 | 73 | 1014.9 |
| 20260904175228 | 83 | 277 | 7.0 | 8.0 | 0.00 | 0.01 | 0.01 | 73 | 1015.1 |
| 20260904174723 | 84 | 234 | 6.0 | 8.0 | 0.00 | 0.01 | 0.01 | 72 | 1014.9 |
| 20260904174219 | 84 | 290 | 4.0 | 5.0 | 0.00 | 0.01 | 0.01 | 72 | 1014.9 |
| 20260904173714 | 83 | 304 | 5.0 | 7.0 | 0.00 | 0.01 | 0.01 | 73 | 1015.0 |
| 20260904173209 | 84 | 219 | 3.0 | 3.0 | 0.00 | 0.01 | 0.01 | 72 | 1015.0 |
| 20260904172706 | 84 | 287 | 5.0 | 6.0 | 0.00 | 0.01 | 0.01 | 72 | 1015.0 |
| 20260904172204 | 85 | 340 | 5.0 | 7.0 | 0.00 | 0.01 | 0.01 | 71 | 1014.5 |
| 20260904171655 | 85 | 356 | 5.0 | 6.0 | 0.00 | 0.01 | 0.01 | 70 | 1014.8 |
| 20260904171154 | 84 | 310 | 5.0 | 7.0 | 0.00 | 0.01 | 0.01 | 71 | 1014.9 |
| 20260904170651 | 84 | 289 | 8.0 | 13.0 | 0.00 | 0.01 | 0.01 | 71 | 1015.0 |
| 20260904170146 | 84 | 208 | 3.0 | 3.0 | 0.00 | 0.01 | 0.01 | 73 | 1014.8 |
| 20260904165645 | 83 | 207 | 2.0 | 3.0 | 0.00 | 0.01 | 0.01 | 75 | 1014.8 |
| 20260904165144 | 84 | 242 | 1.0 | 1.0 | 0.00 | 0.01 | 0.01 | 73 | 1014.9 |
| 20260904164639 | 83 | 217 | 2.0 | 3.0 | 0.00 | 0.01 | 0.01 | 74 | 1015.0 |
| 20260904164135 | 83 | 248 | 3.0 | 3.0 | 0.00 | 0.01 | 0.01 | 75 | 1015.1 |
| 20260904163630 | 83 | 0 | 3.0 | 3.0 | 0.00 | 0.01 | 0.01 | 75 | 1014.9 |
| 20260904163125 | 83 | 205 | 3.0 | 3.0 | 0.00 | 0.01 | 0.01 | 73 | 1014.9 |
| 20260904162620 | 83 | 268 | 3.0 | 5.0 | 0.00 | 0.01 | 0.01 | 74 | 1014.9 |
| 20260904162114 | 83 | 155 | 1.0 | 1.0 | 0.00 | 0.01 | 0.01 | 76 | 1015.2 |
| 20260904161610 | 81 | 265 | 4.0 | 5.0 | 0.00 | 0.01 | 0.01 | 78 | 1015.2 |
| 20260904161105 | 81 | 268 | 5.0 | 7.0 | 0.00 | 0.01 | 0.01 | 79 | 1015.3 |
| 20260904160600 | 82 | 288 | 4.0 | 6.0 | 0.00 | 0.01 | 0.01 | 78 | 1015.1 |
| 20260904160057 | 81 | 241 | 3.0 | 6.0 | 0.00 | 0.01 | 0.01 | 77 | 1015.3 |
| 20260904155555 | 81 | 244 | 1.0 | 1.0 | 0.00 | 0.01 | 0.01 | 79 | 1015.3 |
| 20260904155050 | 82 | 296 | 4.0 | 6.0 | 0.00 | 0.01 | 0.01 | 78 | 1015.4 |
| 20260904154544 | 82 | 136 | 1.0 | 1.0 | 0.00 | 0.01 | 0.01 | 79 | 1015.2 |
| 20260904154039 | 82 | 291 | 2.0 | 3.0 | 0.00 | 0.01 | 0.01 | 78 | 1015.1 |
| 20260904153538 | 81 | 159 | 1.0 | 1.0 | 0.00 | 0.01 | 0.01 | 80 | 1015.5 |
| 20260904153035 | 81 | 97 | 0.0 | 0.0 | 0.00 | 0.01 | 0.01 | 80 | 1015.4 |
| 20260904152530 | 82 | 215 | 0.0 | 1.0 | 0.00 | 0.01 | 0.01 | 79 | 1015.4 |
| 20260904152025 | 81 | 261 | 2.0 | 3.0 | 0.00 | 0.01 | 0.01 | 79 | 1015.3 |
| 20260904151515 | 81 | 301 | 3.0 | 5.0 | 0.00 | 0.01 | 0.01 | 79 | 1015.3 |
| 20260904151014 | 81 | 294 | 5.0 | 8.0 | 0.00 | 0.01 | 0.01 | 79 | 1015.2 |
| 20260904150515 | 82 | 278 | 4.0 | 5.0 | 0.00 | 0.01 | 0.01 | 78 | 1015.4 |
| 20260904150009 | 82 | 201 | 2.0 | 2.0 | 0.00 | 0.01 | 0.01 | 77 | 1015.3 |
| 20260904145504 | 82 | 115 | 4.0 | 5.0 | 0.00 | 0.01 | 0.01 | 79 | 1015.3 |
| 20260904144959 | 82 | 267 | 7.0 | 8.0 | 0.00 | 0.01 | 0.01 | 78 | 1015.1 |
| 20260904144454 | 82 | 250 | 1.0 | 2.0 | 0.00 | 0.01 | 0.01 | 79 | 1015.1 |
| 20260904143950 | 81 | 88 | 1.0 | 1.0 | 0.00 | 0.01 | 0.01 | 80 | 1015.3 |
| 20260904143446 | 81 | 160 | 1.0 | 1.0 | 0.00 | 0.01 | 0.01 | 79 | 1015.2 |
| 20260904142943 | 82 | 295 | 2.0 | 3.0 | 0.00 | 0.01 | 0.01 | 78 | 1015.1 |
| 20260904142439 | 82 | 146 | 1.0 | 2.0 | 0.00 | 0.01 | 0.01 | 79 | 1015.1 |
| 20260904141938 | 81 | 85 | 1.0 | 2.0 | 0.00 | 0.01 | 0.01 | 80 | 1015.3 |
| 20260904141428 | 80 | 291 | 9.0 | 16.0 | 0.00 | 0.01 | 0.01 | 81 | 1015.3 |
| 20260904140924 | 80 | 150 | 2.0 | 2.0 | 0.00 | 0.01 | 0.01 | 81 | 1014.9 |
| 20260904140425 | 80 | 133 | 0.0 | 0.0 | 0.00 | 0.01 | 0.01 | 81 | 1015.2 |
| 20260904135923 | 79 | 102 | 5.0 | 9.0 | 0.00 | 0.01 | 0.01 | 82 | 1014.9 |
| 20260904135423 | 80 | 303 | 9.0 | 13.0 | 0.00 | 0.01 | 0.01 | 81 | 1015.1 |
| 20260904134920 | 80 | 72 | 2.0 | 3.0 | 0.00 | 0.01 | 0.01 | 81 | 1015.1 |
| 20260904134419 | 79 | 304 | 4.0 | 8.0 | 0.00 | 0.01 | 0.01 | 83 | 1015.1 |
| 20260904133914 | 78 | 224 | 4.0 | 6.0 | 0.00 | 0.01 | 0.01 | 84 | 1015.1 |
| 20260904133409 | 79 | 287 | 5.0 | 6.0 | 0.00 | 0.01 | 0.01 | 83 | 1015.4 |
| 20260904132904 | 78 | 304 | 5.0 | 8.0 | 0.00 | 0.01 | 0.01 | 84 | 1015.3 |
| 20260904132359 | 78 | 332 | 2.0 | 3.0 | 0.00 | 0.01 | 0.01 | 84 | 1015.3 |
| 20260904131858 | 78 | 298 | 3.0 | 3.0 | 0.00 | 0.01 | 0.01 | 84 | 1015.3 |
| 20260904131354 | 78 | 339 | 3.0 | 3.0 | 0.00 | 0.01 | 0.01 | 85 | 1015.3 |
| 20260904130849 | 78 | 350 | 3.0 | 5.0 | 0.00 | 0.01 | 0.01 | 85 | 1015.2 |
| 20260904130348 | 78 | 49 | 2.0 | 3.0 | 0.00 | 0.01 | 0.01 | 86 | 1015.5 |
| 20260904125843 | 77 | 328 | 3.0 | 5.0 | 0.00 | 0.01 | 0.01 | 86 | 1015.4 |
| 20260904125340 | 77 | 210 | 2.0 | 2.0 | 0.00 | 0.01 | 0.01 | 88 | 1015.4 |
| 20260904124839 | 77 | 308 | 4.0 | 6.0 | 0.00 | 0.01 | 0.01 | 89 | 1015.0 |
| 20260904124335 | 76 | 304 | 2.0 | 2.0 | 0.00 | 0.01 | 0.01 | 90 | 1015.2 |
| 20260904123830 | 76 | 137 | 2.0 | 2.0 | 0.00 | 0.01 | 0.01 | 91 | 1015.6 |
| 20260904123325 | 75 | 267 | 2.0 | 2.0 | 0.00 | 0.01 | 0.01 | 91 | 1015.2 |
| 20260904122820 | 75 | 139 | 0.0 | 1.0 | 0.00 | 0.01 | 0.01 | 91 | 1015.5 |
| 20260904122315 | 75 | 226 | 3.0 | 3.0 | 0.00 | 0.01 | 0.01 | 91 | 1015.6 |
| 20260904121809 | 75 | 188 | 1.0 | 2.0 | 0.00 | 0.01 | 0.01 | 92 | 1015.5 |
| 20260904121305 | 75 | 303 | 2.0 | 3.0 | 0.00 | 0.01 | 0.01 | 93 | 1015.4 |
| 20260904120803 | 74 | 259 | 3.0 | 3.0 | 0.00 | 0.01 | 0.01 | 93 | 1015.5 |
| 20260904120258 | 74 | 173 | 3.0 | 5.0 | 0.00 | 0.01 | 0.01 | 93 | 1015.4 |
| 20260904115753 | 74 | 195 | 2.0 | 2.0 | 0.00 | 0.01 | 0.01 | 94 | 1015.2 |
| 20260904115248 | 74 | 177 | 1.0 | 2.0 | 0.00 | 0.01 | 0.01 | 94 | 1015.4 |
| 20260904114743 | 74 | 219 | 2.0 | 2.0 | 0.00 | 0.01 | 0.01 | 94 | 1015.3 |
| 20260904114242 | 73 | 235 | 3.0 | 3.0 | 0.00 | 0.01 | 0.01 | 94 | 1015.4 |
| 20260904113737 | 73 | 202 | 2.0 | 2.0 | 0.00 | 0.01 | 0.01 | 95 | 1015.1 |
| 20260904113236 | 73 | 206 | 1.0 | 2.0 | 0.00 | 0.01 | 0.01 | 95 | 1015.2 |
| 20260904112732 | 73 | 304 | 2.0 | 3.0 | 0.00 | 0.01 | 0.01 | 96 | 1015.4 |
| 20260904112227 | 72 | 250 | 0.0 | 1.0 | 0.00 | 0.01 | 0.01 | 97 | 1015.0 |
| 20260904111723 | 72 | 227 | 1.0 | 1.0 | 0.00 | 0.01 | 0.01 | 97 | 1015.0 |
| 20260904111218 | 72 | 228 | 1.0 | 1.0 | 0.00 | 0.01 | 0.01 | 98 | 1015.0 |
| 20260904110714 | 72 | 222 | 1.0 | 1.0 | 0.00 | 0.01 | 0.01 | 98 | 1014.8 |
| 20260904110213 | 72 | 238 | 3.0 | 3.0 | 0.00 | 0.01 | 0.01 | 98 | 1014.9 |
| 20260904105708 | 72 | 231 | 2.0 | 2.0 | 0.00 | 0.01 | 0.01 | 98 | 1014.6 |
| 20260904105202 | 72 | 242 | 2.0 | 2.0 | 0.00 | 0.01 | 0.01 | 98 | 1014.4 |
| 20260904104652 | 72 | 228 | 2.0 | 2.0 | 0.00 | 0.01 | 0.01 | 98 | 1014.4 |
| 20260904104147 | 72 | 208 | 1.0 | 2.0 | 0.00 | 0.01 | 0.01 | 98 | 1014.2 |
| 20260904103644 | 72 | 225 | 2.0 | 2.0 | 0.00 | 0.01 | 0.01 | 99 | 1014.2 |
| 20260904103139 | 72 | 212 | 0.0 | 1.0 | 0.00 | 0.01 | 0.01 | 98 | 1014.1 |
| 20260904102636 | 72 | 221 | 2.0 | 2.0 | 0.00 | 0.01 | 0.01 | 98 | 1014.1 |
| 20260904102130 | 72 | 218 | 3.0 | 3.0 | 0.00 | 0.01 | 0.01 | 98 | 1014.1 |
| 20260904101627 | 72 | 241 | 2.0 | 2.0 | 0.00 | 0.01 | 0.01 | 98 | 1014.4 |
| 20260904101122 | 72 | 262 | 3.0 | 5.0 | 0.00 | 0.01 | 0.01 | 97 | 1013.9 |
| 20260904100618 | 73 | 239 | 1.0 | 2.0 | 0.00 | 0.01 | 0.01 | 97 | 1014.0 |
| 20260904100113 | 73 | 245 | 3.0 | 3.0 | 0.00 | 0.01 | 0.01 | 97 | 1013.9 |
| 20260904095608 | 73 | 247 | 2.0 | 2.0 | 0.00 | 0.01 | 0.01 | 97 | 1014.3 |
| 20260904095103 | 73 | 245 | 3.0 | 3.0 | 0.00 | 0.01 | 0.01 | 97 | 1014.4 |
| 20260904094602 | 73 | 215 | 1.0 | 2.0 | 0.00 | 0.01 | 0.01 | 96 | 1014.3 |
| 20260904094057 | 73 | 255 | 1.0 | 1.0 | 0.00 | 0.01 | 0.01 | 96 | 1014.4 |
| 20260904093554 | 73 | 219 | 0.0 | 0.0 | 0.00 | 0.01 | 0.01 | 96 | 1014.4 |
| 20260904093049 | 73 | 317 | 3.0 | 3.0 | 0.00 | 0.01 | 0.01 | 96 | 1014.2 |
| 20260904092544 | 73 | 238 | 4.0 | 5.0 | 0.00 | 0.01 | 0.01 | 96 | 1014.3 |
| 20260904092041 | 73 | 237 | 4.0 | 5.0 | 0.00 | 0.01 | 0.01 | 96 | 1014.2 |